Starlink 2106

operational
NORAD ID: 47386 Int'l Des: 2021-005 Owner: SPXS Country: US Constellation: starlink
LEOCIRCULARSTARLINK_TYPE

Starlink 2106について

説明を読み込み中...

リアルタイム位置

3D地球を読み込み中...

次回通過

高度履歴

Altitude vs Time

uPlot chart will show altitude changes over time

軌道要素

1 47386U 21005AP 25354.38859968 .00000238 00000-0 34842-4 0 9999
2 47386 53.0564 27.6162 0001421 90.8792 269.2360 15.06396358271510
Epoch: Dec 20, 2025 • Age: 19 hours

現在のステータス

高度 549.2 km
速度 7.59 km/s
衛星直下点 35.18°N, 103.75°W
打ち上げ日 Jan 20, 2021
運用期間 4.9 years
タイプ internet

技術仕様

分類 Payload
質量 260.00 kg
乾燥質量 248.00 kg
総質量 260.00 kg
長さ 0.20 m
直径 2.80 m
スパン 9.00 m
形状 Box + pan
製造者 SPXS
バスタイプ Starlink
フェーズステータス In Orbit
所有者/国 SPXS/US

大規模コンステレーション

Loading constellations...